Location: Burgwalden
(48.2830°N, 10.7576°E)
Time: 02:17:17
(UTC+00:00)

S3M - Pass Details

Date: 26 September 2023
Orbit: 948 x 1005 km, 83.0° (Epoch: 04 December)

Event Time Altitude Azimuth Distance (km) Brightness Sun altitude
Rises 03:30:24 0° 345° (NNW) 3,745 7.1 -16.9°
Reaches altitude 10° 03:33:05 10° 338° (NNW) 2,789 6.4 -16.5°
Maximum altitude 03:38:58 40° 272° (W) 1,438 4.4 -15.5°
Drops below altitude 10° 03:44:46 10° 205° (SSW) 2,750 6.0 -14.6°
Sets 03:47:25 0° 198° (SSW) 3,687 6.7 -14.2°
